• Processing (Info)

  • MPEC 2016-V73 : 2016 VP2

    The following Minor Planet Electronic Circular may be linked-to from your own Web pages, but must not otherwise be redistributed electronically.

    A form allowing access to any MPEC is at the bottom of this page.


    Read MPEC 2016-V72 Read MPEC 2016-V74


    M.P.E.C. 2016-V73                                Issued 2016 Nov.  9, 00:20 UT
    
         The Minor Planet Electronic Circulars contain information on unusual
             minor planets and routine data on comets.  They are published
        on behalf of Division F of the International Astronomical Union by the
              Minor Planet Center, Smithsonian Astrophysical Observatory,
                              Cambridge, MA 02138, U.S.A.
    
                 Prepared using the Tamkin Foundation Computer Network
    
                                  MPC@CFA.HARVARD.EDU
                URL https://www.minorplanetcenter.net/    ISSN 1523-6714
    
                                       2016 VP2
    
    Observations:
         K16V02P* C2016 11 06.47972 03 56 21.208-23 27 08.56         20.1 wLEV073F51
         K16V02P  C2016 11 06.50249 03 56 09.150-23 23 29.34         20.6 wLEV073F51
         K16V02P  C2016 11 06.51394 03 56 03.110-23 21 39.10         20.6 wLEV073F51
         K16V02P |C2016 11 07.17653 03 50 29.08 -21 28 24.6          20.1 VuEV073807
         K16V02P |C2016 11 07.18003 03 50 27.07 -21 27 47.1          20.7 VuEV073807
         K16V02P |C2016 11 07.18339 03 50 25.20 -21 27 11.2          20.4 VuEV073807
         K16V02P |C2016 11 07.18648 03 50 23.51 -21 26 38.1          20.3 VuEV073807
         K16V02P |C2016 11 07.18979 03 50 21.63 -21 26 02.5          20.3 VuEV073807
         K16V02P  C2016 11 07.29102 03 49 28.39 -21 09 20.3          19.6 RoEV073926
         K16V02P  C2016 11 07.29400 03 49 26.67 -21 08 47.8          19.6 RoEV073926
         K16V02P  C2016 11 07.29700 03 49 24.99 -21 08 15.5          20.0 RoEV073926
         K16V02P  C2016 11 07.29999 03 49 23.27 -21 07 43.1          20.1 RoEV073926
         K16V02P  C2016 11 07.30297 03 49 21.60 -21 07 10.9          19.9 RoEV073926
         K16V02P  C2016 11 07.30596 03 49 19.90 -21 06 38.8          20.4 RoEV073926
         K16V02P  C2016 11 08.25479 03 40 30.65 -18 01 22.0          19.7 RoEV073926
         K16V02P  C2016 11 08.25714 03 40 29.18 -18 00 52.2          19.4 RoEV073926
         K16V02P  C2016 11 08.25949 03 40 27.70 -18 00 22.7          19.4 RoEV073926
    
    Observer details:
    807 Cerro Tololo.  Observers T. Linder, R. Holmes.  0.61-m f/6.5 astrograph
        + CCD.
    926 Tenagra II Observatory.  Observers M. Schwartz, P. R. Holvorcem.  Measurer
        M. Schwartz.  0.81-m f/7 Ritchey-Chretien + CCD.
    F51 Pan-STARRS 1, Haleakala.  Observers B. Gibson, T. Goggia, S. Kahale,
        A. Schultz, M. Willman.  Measurers K. Chambers, S. Chastel, L. Denneau,
        H. Flewelling, M. Huber, E. Lilly, E. Magnier, R. Wainscoat, C. Waters,
        R. Weryk.  1.8-m Ritchey-Chretien + CCD.
    
    Orbital elements:
    2016 VP2                                                 Earth MOID = 0.0611 AU
    Epoch 2016 July 31.0 TT = JDT 2457600.5                 MPC
    M 252.74935              (2000.0)            P               Q
    n   0.73799949     Peri.   39.28750     +0.05179243     -0.92480742
    a   1.2127334      Node    51.26748     +0.75050250     -0.21293428
    e   0.1590308      Incl.   28.89135     +0.65883498     +0.31526215
    P   1.34           H   23.7           G   0.15           U   7
    Residuals in seconds of arc
    161106 F51  0.1+  0.1+    161107 807  0.3-  0.3+    161107 926  0.4+  0.2-
    161106 F51  0.1-  0.2+    161107 807  0.5-  0.7+    161107 926  0.4+  0.5-
    161106 F51  0.2+  0.2-    161107 926  0.4+  0.3-    161108 926  0.4+  0.1-
    161107 807  0.5-  0.5-    161107 926  0.0   0.0     161108 926  0.2+  0.3+
    161107 807  1.2-  0.1-    161107 926  0.3+  0.2-    161108 926  0.1-  0.3+
    161107 807  0.9-  0.1+    161107 926  0.0   0.1-
    
    Ephemeris:
    2016 VP2                 a,e,i = 1.21, 0.16, 29                  q = 1.0199
    Date    TT    R. A. (2000) Decl.     Delta      r     Elong.  Phase     V
    2016 10 10    05 11 27.7 -42 31 31   0.3189  1.1251   105.2    58.9    23.6
    ...
    2016 10 25    04 54 49.2 -38 51 54   0.1969  1.0910   114.5    56.0    22.4
    ...
    2016 11 02    04 25 53.2 -32 06 00   0.1324  1.0746   125.5    48.8    21.3
    ...
    2016 11 08    03 42 55.9 -18 52 44   0.08969 1.0633   142.5    34.5    20.0
    2016 11 09    03 32 54.8 -15 14 56   0.08379 1.0615   146.7    30.8    19.8
    2016 11 10    03 21 51.1 -11 02 37   0.07847 1.0598   151.4    26.6    19.5
    ...
    2016 11 16    01 50 04.5 +24 29 55   0.06599 1.0500   157.1    21.5    19.0
    ...
    2016 11 24    23 11 31.2 +54 04 17   0.1041  1.0388   117.0    57.8    21.0
    ...
    2016 12 09    20 45 45.3 +59 58 22   0.2182  1.0244    94.2    73.5    23.0
    
    A. U. Tomatic                (C) Copyright 2016 MPC           M.P.E.C. 2016-V73
    

    Read MPEC 2016-V72 Read MPEC 2016-V74


    MPEC number:

    Enter an MPEC number in one of the following forms:

    • 1997-B01 (the full form)
    • J97B01 (the packed version of the full form)
    • B01 (the abbreviated form)